Location: Unspecified
(0.0000°N, 0.0000°E)
Time: 22:54:51
(UTC-04:00)

Hubble Space Telescope - Pass Details

Date: 27 September 2021
Orbit: 535 x 538 km, 28.5° (Epoch: 19 October)

Event Time Altitude Azimuth Distance (km) Brightness Sun altitude
Rises 15:08:10 0° 291° (WNW) 2,663 5.5 -19.3°
Reaches altitude 10° 15:10:27 10° 286° (WNW) 1,775 4.5 -19.9°
Maximum altitude 15:14:27 50° 210° (SSW) 681 1.4 -20.9°
Enters shadow 15:15:38 37° 161° (SSE) 837 1.5 -21.2°
